Location: Bosmont
(49.7318°N, 3.8587°E)
Time: 04:24:43
(UTC+00:00)

Envisat - Visible Passes

Search period start: 10 June 2023 00:00
Search period end: 20 June 2023 00:00
Orbit: 763 x 765 km, 98.2° (Epoch: 09 June)

Date Brightness Start Highest point End Pass type
(mag) Time Alt. Az. Time Alt. Az. Time Alt. Az.
11 Jun 5.4 02:29:30 10° NE 02:33:07 19° E 02:36:42 10° SE visible
14 Jun 5.5 02:17:35 10° NE 02:20:31 15° E 02:23:26 10° ESE visible
16 Jun 5.1 02:41:24 10° NE 02:45:31 24° E 02:49:37 10° SE visible
17 Jun 5.7 02:06:02 10° ENE 02:07:53 12° E 02:09:43 10° ESE visible
19 Jun 5.4 02:29:17 10° NE 02:32:56 19° E 02:36:34 10° SE visible
